Regional Weather Roundup
Issued by NWS

Home | Current Version | Previous Version | Graphics & Text | Print | Product List | Glossary On
Versions: 1 2 3 4 5 6 7 8 9 10 11 12 13 14 15 16 17 18 19 20 21 22 23 24 25 26 27 28 29 30 31 32 33 34 35 36 37 38 39 40 41 42 43 44 45 46 47 48 49 50
231
ASUS43 KMKX 260020
RWRWI

WISCONSIN REGIONAL WEATHER ROUNDUP
NATIONAL WEATHER SERVICE MILWAUKEE/SULLIVAN WI
700 PM CDT WED APR 25 2018

NOTE: "FAIR" INDICATES FEW OR NO CLOUDS BELOW 12,000 FEET WITH NO
SIGNIFICANT WEATHER AND/OR OBSTRUCTIONS TO VISIBILITY.

WIZ001-002-006>008-014>016-023>028-260100-
NORTHWEST WISCONSIN

CITY           SKY/WX    TMP DP  RH WIND       PRES   REMARKS
SUPERIOR ARPT  FAIR      57  19  22 W5        29.97F
6HR MIN TEMP:  50; 6HR MAX TEMP:  60;

ASHLAND        FAIR      44  28  53 N6        30.00F
6HR MIN TEMP:  44; 6HR MAX TEMP:  54;

HAYWARD        FAIR      56  22  26 SW7       30.00F
6HR MIN TEMP:  49; 6HR MAX TEMP:  58;

SIREN          FAIR      56  20  25 W8        30.01F
6HR MIN TEMP:  51; 6HR MAX TEMP:  58;

CUMBERLAND     FAIR      52  23  32 W6        30.01F
RICE LAKE      FAIR      54  24  30 CALM      30.02F
6HR MIN TEMP:  48; 6HR MAX TEMP:  55;

CHETEK         FAIR      54  24  31 CALM      30.02F
6HR MIN TEMP:  49; 6HR MAX TEMP:  56;

LADYSMITH      FAIR      55  22  28 W3        30.02F
6HR MIN TEMP:  49; 6HR MAX TEMP:  56;

EAU CLAIRE     FAIR      57  25  29 W8        30.00F
6HR MIN TEMP:  51; 6HR MAX TEMP:  59;

MENOMONIE      FAIR      58  23  26 W5        30.01F
6HR MIN TEMP:  51; 6HR MAX TEMP:  59;

NEW RICHMOND   FAIR      56  17  21 SW5       30.02F
6HR MIN TEMP:  50; 6HR MAX TEMP:  58;

OSCEOLA        FAIR      58  22  25 SW7       30.04F
6HR MIN TEMP:  51; 6HR MAX TEMP:  59;

$$

WIZ003>005-009-010-017-018-260100-
NORTH CENTRAL WISCONSIN

CITY           SKY/WX    TMP DP  RH WIND       PRES   REMARKS
MANITOWISH WTR FAIR      51  18  27 CALM      29.99F
6HR MIN TEMP:  44; 6HR MAX TEMP:  51;

ARBOR VITAE    FAIR      52  19  28 CALM      29.99F
6HR MIN TEMP:  46; 6HR MAX TEMP:  52;

WOODRUFF       FAIR      52  19  28 CALM      29.99F
6HR MIN TEMP:  46; 6HR MAX TEMP:  52;

RHINELANDER    FAIR      52  18  26 CALM      30.00F
6HR MIN TEMP:  47; 6HR MAX TEMP:  54;

EAGLE RIVER    FAIR      49  17  27 W3        29.99S
6HR MIN TEMP:  45; 6HR MAX TEMP:  52;

LAND O LAKES   FAIR      50  17  27 W3        30.00F
6HR MIN TEMP:  44; 6HR MAX TEMP:  51;

PHILLIPS       FAIR      53  22  29 CALM      29.99F
6HR MIN TEMP:  47; 6HR MAX TEMP:  55;

TOMAHAWK       FAIR      51  19  27 CALM      30.01S
6HR MIN TEMP:  48; 6HR MAX TEMP:  54;

MEDFORD        FAIR      52  26  36 SW5       30.00F
6HR MIN TEMP:  47; 6HR MAX TEMP:  54;

MERRILL        FAIR      54  22  29 W5        30.01S
6HR MIN TEMP:  48; 6HR MAX TEMP:  56;

$$

WIZ029-030-035-036-043>047-260100-
CENTRAL WISCONSIN

CITY           SKY/WX    TMP DP  RH WIND       PRES   REMARKS
WAUSAU         FAIR      55  20  25 N3        29.98F
6HR MIN TEMP:  49; 6HR MAX TEMP:  57;

MOSINEE        PTCLDY    54  25  32 NW3       30.01F
MARSHFIELD     FAIR      53  28  38 W5        30.00F
6HR MIN TEMP:  49; 6HR MAX TEMP:  56;

STEVENS POINT  FAIR      53  25  33 NW3       30.01F
6HR MIN TEMP:  47; 6HR MAX TEMP:  54;

WAUPACA        FAIR      56  25  30 CALM      30.01S
6HR MIN TEMP:  53; 6HR MAX TEMP:  59;

WAUTOMA        FAIR      55  27  34 NW6         N/A
6HR MIN TEMP:  52; 6HR MAX TEMP:  57;

WISC RAPIDS    FAIR      55  27  34 N5        30.02F
6HR MIN TEMP:  51; 6HR MAX TEMP:  57;

CAMP DOUGLAS   PTCLDY    59  25  27 N5        30.00F
$$

WIZ011>013-019>022-031-037>040-048>050-260100-
NORTHEAST WISCONSIN

CITY           SKY/WX    TMP DP  RH WIND       PRES   REMARKS
ANTIGO         FAIR      51  25  35 NW5       30.00S
6HR MIN TEMP:  45; 6HR MAX TEMP:  54;

SHAWANO        FAIR      56  29  34 CALM      29.99F
6HR MIN TEMP:  51; 6HR MAX TEMP:  58;

OCONTO         FAIR      46  30  53 SE5       30.01F
6HR MIN TEMP:  46; 6HR MAX TEMP:  49;

STURGEON BAY   FAIR      44  28  53 SE8       30.03F
6HR MIN TEMP:  44; 6HR MAX TEMP:  50;

GREEN BAY      FAIR      53  34  48 S6        30.01F
6HR MIN TEMP:  49; 6HR MAX TEMP:  56;

MANITOWOC      FAIR      43  28  55 SE8       30.04S
6HR MIN TEMP:  43; 6HR MAX TEMP:  52;

APPLETON       PTCLDY    54  21  28 NW5       30.00F
CLINTONVILLE   FAIR      55  22  28 NW3       30.00F
6HR MIN TEMP:  48; 6HR MAX TEMP:  56;

OSHKOSH        FAIR      51  32  48 SE3       30.02S
6HR MIN TEMP:  47; 6HR MAX TEMP:  52;

$$

WIZ032>034-041-042-053>061-260100-
SOUTHWEST WISCONSIN

CITY           SKY/WX    TMP DP  RH WIND       PRES   REMARKS
LA CROSSE      FAIR      60  27  28 W6        30.01F
6HR MIN TEMP:  54; 6HR MAX TEMP:  62;

SPARTA         FAIR      59  27  30 CALM      30.02F
6HR MIN TEMP:  54; 6HR MAX TEMP:  60;

VIROQUA        FAIR      56  27  32 CALM      30.01F
6HR MIN TEMP:  53; 6HR MAX TEMP:  59;

BOSCOBEL       FAIR      63  28  26 N3        30.01F
6HR MIN TEMP:  59; 6HR MAX TEMP:  65;

PRAIRIE DU CHI FAIR      60  18  19 N6        30.01S
6HR MIN TEMP:  56; 6HR MAX TEMP:  62;

PLATTEVILLE    FAIR      60  29  30 N5        30.00F
6HR MIN TEMP:  56; 6HR MAX TEMP:  62;

$$

WIZ056-057-062-063-064-067-068-260100-
SOUTH CENTRAL WISCONSIN

CITY           SKY/WX    TMP DP  RH WIND       PRES   REMARKS
REEDSBURG      FAIR      56  27  32 N6        30.00S
6HR MIN TEMP:  52; 6HR MAX TEMP:  59;

BARABOO/DELLS  FAIR      56  20  24 N3        30.01S
6HR MIN TEMP:  54; 6HR MAX TEMP:  59;

LONE ROCK      FAIR      60  26  27 N5        30.00F
6HR MIN TEMP:  57; 6HR MAX TEMP:  63;

MINERAL POINT  FAIR      61  23  23 CALM      30.00F
MADISON        FAIR      58  28  32 N3        30.00F
6HR MIN TEMP:  54; 6HR MAX TEMP:  60;

MIDDLETON      FAIR      59  23  24 NW3       30.01S
6HR MIN TEMP:  55; 6HR MAX TEMP:  62;

WATERTOWN      FAIR      53  31  42 NE7       30.01S
6HR MIN TEMP:  52; 6HR MAX TEMP:  57;

MONROE         FAIR      57  27  30 NE7       30.00S
JANESVILLE     PTCLDY    59  25  27 N7        30.00F
$$

WIZ051-052-058>065-066-070>072-260100-
SOUTHEAST WISCONSIN

CITY           SKY/WX    TMP DP  RH WIND       PRES   REMARKS
MILWAUKEE      FAIR      43  29  57 NE7       30.05F
6HR MIN TEMP:  43; 6HR MAX TEMP:  47;

WAUKESHA       CLEAR     46  28  49 E8        30.04S
MILWAUKEE/TIMM CLEAR     45  25  45 NE8       30.05F
RACINE         FAIR      42  29  59 NE8       30.06F
6HR MIN TEMP:  42; 6HR MAX TEMP:  48;

BURLINGTON     FAIR      47  30  53 E8        30.04S
6HR MIN TEMP:  47; 6HR MAX TEMP:  58;

KENOSHA        FAIR      44  28  53 E10       30.05S
6HR MIN TEMP:  44; 6HR MAX TEMP:  52;

FOND DU LAC    FAIR      51  30  44 NE5       30.02F
6HR MIN TEMP:  48; 6HR MAX TEMP:  52;

SHEBOYGAN      FAIR      45  30  55 E6        30.03F
6HR MIN TEMP:  45; 6HR MAX TEMP:  50;

WEST BEND      FAIR      45  30  57 SE6       30.03S
JUNEAU         FAIR      52  32  46 CALM      30.02F
6HR MIN TEMP:  49; 6HR MAX TEMP:  55;

$$

LSZ147-162-260100-
LAKE SUPERIOR

STATION/POSITION TIME  TEMP    WIND        PRES    WAVE
                       AIR SEA DIR/SP/G            HT/PER
                 (UTC) (F)     (DEG/KT/KT) (MB)    (FT/S)
DEVILS ISLAND    0000   45     150/  3/  4 1016.2F
SAXON HARBOR     2330   45     330/  1/  2 1015.9F
$$

LMZ867-665-643>646-260100-
LAKE MICHIGAN

STATION/POSITION TIME  TEMP    WIND        PRES    WAVE
                       AIR SEA DIR/SP/G            HT/PER




USA.gov is the U.S. government's official web portal to all federal, state and local government web resources and services.